Crookston, MN

2:46 AM CST on February 24, 2017 (GMT -0600)
Crookston Municipal-Kirkwood

Weather History for KCKN - August, 2013

Change the Weather History Date:

Wednesday, August 7, 2013

  Actual Average Record
Temperature  
Mean Temperature 56 °F -  
Max Temperature 69 °F 76 °F 91 °F (2001)
Min Temperature 44 °F 54 °F 44 °F (2013)
Degree Days  
Heating Degree Days 8    
Growing Degree Days 6 (Base 50)    
Moisture  
Dew Point 50 °F    
Average Humidity 77    
Maximum Humidity 94    
Minimum Humidity 49    
Precipitation  
Precipitation 0.01 in - - ()
Sea Level Pressure  
Sea Level Pressure 30.00 in    
Wind  
Wind Speed 3 mph (North)    
Max Wind Speed 9 mph    
Max Gust Speed -    
Visibility 10 miles    
Events Rain    
Averages and records for this station are not official NWS values.
T = Trace of Precipitation, MM = Missing Value Source: NWS Daily Summary

Daily Weather History Graph

Daily Weather History Graph

Search for Another Location

Airport or City:

Trip Planner

Search our weather history database for the weather conditions in past years. The results will help you decide how hot, cold, wet, or windy it might be!

Date:

Astronomy

Aug. 07, 2013 Rise Set
Actual Time 6:11 AM CDT 8:52 PM CDT
Civil Twilight 5:36 AM CDT 9:27 PM CDT
Nautical Twilight 4:51 AM CDT 10:11 PM CDT
Astronomical Twilight 3:58 AM CDT 11:03 PM CDT
Moon 7:09 AM CDT (8/7) 8:48 PM CDT (8/7)
Length of Visible Light 15h 51m
Length of Day
14h 40m
New Moon, 1% of the Moon is Illuminated
Aug 7
New Moon
Aug 14
First Quarter
Aug 20
Full
Aug 28
Last Quarter
Sep 5
New

Hourly Weather History & Observations

Time (CDT) Temp. Windchill Dew Point Humidity Pressure Visibility Wind Dir Wind Speed Gust Speed Precip Events Conditions
12:14 AM 46.4 °F 43.5 °F 44.6 °F 93% 29.91 in 10.0 mi North 5.8 mph - N/A   Clear
12:35 AM 50.0 °F - 46.4 °F 87% 29.91 in 10.0 mi North 4.6 mph - N/A   Clear
12:54 AM 48.2 °F - 44.6 °F 87% 29.92 in 10.0 mi North 3.5 mph - N/A   Clear
1:14 AM 48.2 °F - 44.6 °F 87% 29.93 in 10.0 mi Calm Calm - N/A   Clear
1:35 AM 48.2 °F - 44.6 °F 87% 29.94 in 10.0 mi Calm Calm - N/A   Clear
1:54 AM 46.4 °F - 44.6 °F 93% 29.94 in 10.0 mi Calm Calm - N/A   Clear
2:15 AM 46.4 °F - 44.6 °F 93% 29.94 in 10.0 mi Calm Calm - N/A   Clear
2:35 AM 46.4 °F 41.9 °F 44.6 °F 93% 29.95 in 10.0 mi NW 9.2 mph - N/A   Clear
2:54 AM 46.4 °F 45.2 °F 44.6 °F 93% 29.95 in 10.0 mi North 3.5 mph - N/A   Clear
3:14 AM 48.2 °F - 44.6 °F 87% 29.95 in 10.0 mi North 3.5 mph - N/A   Clear
3:35 AM 46.4 °F - 44.6 °F 93% 29.95 in 10.0 mi Calm Calm - N/A   Clear
3:54 AM 46.4 °F - 44.6 °F 93% 29.95 in 10.0 mi Calm Calm - N/A   Clear
4:15 AM 46.4 °F 45.2 °F 44.6 °F 93% 29.95 in 10.0 mi North 3.5 mph - N/A   Clear
4:34 AM 46.4 °F - 44.6 °F 93% 29.97 in 10.0 mi Calm Calm - N/A   Clear
4:54 AM 46.4 °F 45.2 °F 44.6 °F 93% 29.97 in 10.0 mi North 3.5 mph - N/A   Clear
5:15 AM 46.4 °F - 44.6 °F 93% 29.97 in 10.0 mi Calm Calm - N/A   Clear
5:34 AM 44.6 °F 43.1 °F 42.8 °F 93% 29.98 in 10.0 mi NW 3.5 mph - N/A   Clear
5:54 AM 44.6 °F 41.4 °F 42.8 °F 93% 29.98 in 10.0 mi NNW 5.8 mph - N/A   Clear
6:15 AM 44.6 °F - 42.8 °F 93% 29.99 in 10.0 mi Calm Calm - N/A   Clear
6:34 AM 44.6 °F - 42.8 °F 93% 29.99 in 10.0 mi Calm Calm - N/A   Clear
6:54 AM 44.6 °F 42.2 °F 42.8 °F 93% 30.00 in 10.0 mi NNW 4.6 mph - N/A   Clear
7:15 AM 46.4 °F - 44.6 °F 93% 30.00 in 10.0 mi Calm Calm - N/A   Clear
7:34 AM 48.2 °F - 46.4 °F 93% 30.01 in 10.0 mi NNW 3.5 mph - N/A   Clear
7:54 AM 50.0 °F - 48.2 °F 94% 30.01 in 10.0 mi Calm Calm - N/A   Clear
8:14 AM 51.8 °F - 48.2 °F 88% 30.01 in 10.0 mi North 4.6 mph - N/A   Clear
8:34 AM 53.6 °F - 50.0 °F 88% 30.01 in 10.0 mi North 4.6 mph - N/A   Clear
8:55 AM 55.4 °F - 50.0 °F 82% 30.01 in 10.0 mi Calm Calm - N/A   Clear
9:14 AM 57.2 °F - 50.0 °F 77% 30.02 in 10.0 mi North 4.6 mph - N/A   Clear
9:35 AM 59.0 °F - 50.0 °F 72% 30.02 in 10.0 mi North 4.6 mph - N/A   Clear
9:55 AM 60.8 °F - 50.0 °F 68% 30.02 in 10.0 mi North 3.5 mph - N/A   Clear
10:14 AM 60.8 °F - 48.2 °F 63% 30.02 in 10.0 mi Calm Calm - N/A   Clear
10:35 AM 62.6 °F - 48.2 °F 59% 30.02 in 10.0 mi ENE 3.5 mph - N/A   Clear
10:54 AM 62.6 °F - 48.2 °F 59% 30.03 in 10.0 mi NW 3.5 mph - N/A   Clear
11:14 AM 64.4 °F - 48.2 °F 56% 30.03 in 10.0 mi Calm Calm - N/A   Clear
11:35 AM 64.4 °F - 48.2 °F 56% 30.03 in 10.0 mi Calm Calm - N/A   Clear
11:54 AM 64.4 °F - 46.4 °F 52% 30.03 in 10.0 mi WNW 4.6 mph - N/A   Clear
12:14 PM 64.4 °F - 48.2 °F 56% 30.03 in 10.0 mi West 5.8 mph - N/A   Scattered Clouds
12:35 PM 66.2 °F - 48.2 °F 52% 30.03 in 10.0 mi WSW 6.9 mph - N/A   Scattered Clouds
12:54 PM 68.0 °F - 48.2 °F 49% 30.03 in 10.0 mi North 4.6 mph - N/A   Scattered Clouds
1:15 PM 68.0 °F - 48.2 °F 49% 30.02 in 10.0 mi Calm Calm - N/A   Scattered Clouds
1:34 PM 68.0 °F - 48.2 °F 49% 30.02 in 10.0 mi West 5.8 mph - N/A   Scattered Clouds
1:54 PM 68.0 °F - 50.0 °F 52% 30.02 in 10.0 mi West 8.1 mph - N/A   Mostly Cloudy
2:15 PM 69.8 °F - 50.0 °F 49% 30.02 in 10.0 mi NW 8.1 mph - N/A   Mostly Cloudy
2:34 PM 69.8 °F - 50.0 °F 49% 30.01 in 10.0 mi West 9.2 mph - N/A   Mostly Cloudy
2:55 PM 69.8 °F - 50.0 °F 49% 30.00 in 10.0 mi NW 3.5 mph - N/A   Mostly Cloudy
3:14 PM 69.8 °F - 50.0 °F 49% 30.00 in 10.0 mi North 3.5 mph - N/A   Overcast
3:34 PM 69.8 °F - 50.0 °F 49% 30.00 in 10.0 mi NNE 3.5 mph - N/A   Overcast
3:55 PM 69.8 °F - 50.0 °F 49% 30.00 in 10.0 mi Calm Calm - N/A   Mostly Cloudy
4:14 PM 68.0 °F - 50.0 °F 52% 30.00 in 10.0 mi NE 3.5 mph - N/A   Overcast
4:34 PM 66.2 °F - 51.8 °F 60% 30.01 in 10.0 mi NNE 4.6 mph - N/A Rain Rain
4:55 PM 62.6 °F - 55.4 °F 77% 30.02 in 10.0 mi NNE 6.9 mph - N/A Rain Light Rain
5:14 PM 60.8 °F - 55.4 °F 82% 30.02 in 10.0 mi NE 6.9 mph - 0.01 in Rain Light Rain
5:34 PM 60.8 °F - 55.4 °F 82% 30.02 in 10.0 mi NE 6.9 mph - 0.01 in   Mostly Cloudy
5:55 PM 60.8 °F - 55.4 °F 82% 30.01 in 10.0 mi NE 8.1 mph - N/A   Mostly Cloudy
6:14 PM 62.6 °F - 55.4 °F 77% 30.01 in 10.0 mi NE 8.1 mph - N/A   Mostly Cloudy
6:34 PM 62.6 °F - 55.4 °F 77% 30.01 in 10.0 mi NE 5.8 mph - N/A   Overcast
6:55 PM 62.6 °F - 53.6 °F 72% 30.01 in 10.0 mi ENE 4.6 mph - N/A   Mostly Cloudy
7:14 PM 62.6 °F - 55.4 °F 77% 30.01 in 10.0 mi East 4.6 mph - N/A   Mostly Cloudy
7:35 PM 60.8 °F - 55.4 °F 82% 30.01 in 10.0 mi ENE 4.6 mph - N/A   Mostly Cloudy
7:54 PM 60.8 °F - 55.4 °F 82% 30.01 in 10.0 mi East 3.5 mph - N/A   Mostly Cloudy
8:14 PM 60.8 °F - 55.4 °F 82% 30.01 in 10.0 mi ENE 3.5 mph - N/A   Overcast
8:35 PM 60.8 °F - 55.4 °F 82% 30.01 in 10.0 mi East 3.5 mph - N/A   Mostly Cloudy
8:54 PM 60.8 °F - 55.4 °F 82% 30.01 in 10.0 mi ENE 3.5 mph - N/A   Mostly Cloudy
9:14 PM 60.8 °F - 55.4 °F 82% 30.01 in 10.0 mi Calm Calm - N/A   Mostly Cloudy
9:35 PM 60.8 °F - 55.4 °F 82% 30.02 in 10.0 mi Calm Calm - N/A   Scattered Clouds
9:54 PM 59.0 °F - 55.4 °F 88% 30.03 in 10.0 mi Calm Calm - N/A   Mostly Cloudy
10:14 PM 60.8 °F - 55.4 °F 82% 30.03 in 10.0 mi Calm Calm - N/A   Overcast
10:35 PM 59.0 °F - 55.4 °F 88% 30.03 in 10.0 mi Calm Calm - N/A   Overcast
10:54 PM 59.0 °F - 55.4 °F 88% 30.03 in 10.0 mi Calm Calm - N/A   Overcast
11:15 PM 59.0 °F - 55.4 °F 88% 30.04 in 10.0 mi Calm Calm - N/A   Overcast
11:34 PM 59.0 °F - 57.2 °F 94% 30.04 in 10.0 mi Calm Calm - N/A   Overcast
11:54 PM 59.0 °F - 57.2 °F 94% 30.04 in 10.0 mi Calm Calm - N/A   Overcast